Time,TemperatureF,DewpointF,PressureIn,WindDirection,WindDirectionDegrees,WindSpeedMPH,WindSpeedGustMPH,Humidity,HourlyPrecipIn,Conditions,Clouds,dailyrainin,SoftwareType,DateUTC
2013-11-28 01:03:00,34.9,27.1,28.90,SSE,158,0.9,0.9,73,0.00,RA,BKN,0.01,WeatherDisplay:10.37,2013-11-28 06:03:00,
2013-11-28 01:04:00,34.9,27.1,28.90,SSE,158,0.9,0.9,73,0.00,RA,BKN,0.01,WeatherDisplay:10.37,2013-11-28 06:04:00,
2013-11-28 01:09:00,34.7,26.9,28.90,West,270,3.1,3.1,73,0.00,RA,BKN,0.01,WeatherDisplay:10.37,2013-11-28 06:09:00,
2013-11-28 01:14:00,34.5,26.8,28.90,North,0,0.0,2.6,73,0.00,RA,BKN,0.01,WeatherDisplay:10.37,2013-11-28 06:14:00,
2013-11-28 01:19:00,34.5,26.8,28.91,West,270,1.6,1.6,73,0.00,RA,BKN,0.01,WeatherDisplay:10.37,2013-11-28 06:19:00,
2013-11-28 01:24:00,34.5,26.8,28.92,WNW,292,0.0,1.8,73,0.00,RA,BKN,0.01,WeatherDisplay:10.37,2013-11-28 06:24:00,
2013-11-28 01:29:00,34.5,26.8,28.92,SSE,158,0.9,0.9,73,0.00,RA,BKN,0.01,WeatherDisplay:10.37,2013-11-28 06:29:00,
2013-11-28 01:34:00,34.5,26.4,28.93,SW,225,0.0,0.9,72,0.00,RA,BKN,0.01,WeatherDisplay:10.37,2013-11-28 06:34:00,
2013-11-28 01:39:00,34.7,26.6,28.93,SW,225,0.7,0.7,72,0.00,RA,BKN,0.01,WeatherDisplay:10.37,2013-11-28 06:39:00,
2013-11-28 01:44:00,34.5,26.4,28.92,South,180,0.5,0.5,72,0.00,RA,BKN,0.01,WeatherDisplay:10.37,2013-11-28 06:44:00,
2013-11-28 08:38:00,34.5,26.1,28.93,West,270,2.0,2.0,71,0.00,RA,BKN,0.01,WeatherDisplay:10.37,2013-11-28 13:38:00,
2013-11-28 08:43:00,25.5,13.2,29.37,West,270,4.3,4.3,59,0.00,RA,BKN,3.77,WeatherDisplay:10.37,2013-11-28 13:43:00,
2013-11-28 08:48:00,25.7,13.3,29.37,West,270,0.2,0.2,59,0.00,RA,BKN,3.77,WeatherDisplay:10.37,2013-11-28 13:48:00,
2013-11-28 08:55:00,25.7,12.6,29.39,West,270,5.2,5.2,57,0.00,RA,BKN,3.77,WeatherDisplay:10.37,2013-11-28 13:55:00,
2013-11-28 09:00:00,25.5,12.4,29.39,West,270,1.8,1.8,57,0.00,RA,BKN,3.77,WeatherDisplay:10.37,2013-11-28 14:00:00,
2013-11-28 09:05:00,25.7,12.9,29.40,West,270,6.2,6.2,58,0.00,RA,BKN,3.77,WeatherDisplay:10.37,2013-11-28 14:05:00,
2013-11-28 09:10:00,25.5,12.8,29.40,West,270,0.2,0.2,58,0.00,RA,BKN,3.77,WeatherDisplay:10.37,2013-11-28 14:10:00,
2013-11-28 09:15:00,25.3,12.2,29.41,West,270,0.7,0.7,57,0.00,RA,BKN,3.77,WeatherDisplay:10.37,2013-11-28 14:15:00,
2013-11-28 09:20:00,25.2,12.0,29.41,West,270,1.4,1.4,57,0.00,RA,BKN,3.77,WeatherDisplay:10.37,2013-11-28 14:20:00,
2013-11-28 09:25:00,24.8,11.3,29.42,West,270,0.0,2.9,56,0.00,RA,BKN,3.77,WeatherDisplay:10.37,2013-11-28 14:25:00,
2013-11-28 09:30:00,24.6,11.9,29.43,West,270,0.9,0.9,58,0.00,RA,BKN,3.77,WeatherDisplay:10.37,2013-11-28 14:30:00,
2013-11-28 09:35:00,24.4,11.8,29.43,West,270,0.7,0.7,58,0.00,RA,BKN,3.77,WeatherDisplay:10.37,2013-11-28 14:35:00,
2013-11-28 09:40:00,24.4,12.1,29.44,West,270,1.8,1.8,59,0.00,RA,BKN,3.77,WeatherDisplay:10.37,2013-11-28 14:40:00,
2013-11-28 09:46:00,24.3,11.6,29.45,West,270,2.9,2.9,58,0.00,RA,BKN,3.77,WeatherDisplay:10.37,2013-11-28 14:46:00,
2013-11-28 09:51:00,24.1,11.4,29.45,West,270,0.0,1.8,58,0.00,RA,BKN,3.77,WeatherDisplay:10.37,2013-11-28 14:51:00,
2013-11-28 09:57:00,24.3,11.6,29.46,West,270,6.2,6.2,58,0.00,RA,BKN,3.77,WeatherDisplay:10.37,2013-11-28 14:57:00,
2013-11-28 10:02:00,24.3,11.6,29.46,West,270,1.8,1.8,58,0.00,RA,BKN,3.77,WeatherDisplay:10.37,2013-11-28 15:02:00,
2013-11-28 10:07:00,24.4,11.8,29.47,West,270,1.4,1.4,58,0.00,RA,BKN,3.77,WeatherDisplay:10.37,2013-11-28 15:07:00,
2013-11-28 10:12:00,24.8,11.7,29.47,West,270,0.9,0.9,57,0.00,RA,BKN,3.77,WeatherDisplay:10.37,2013-11-28 15:12:00,
2013-11-28 10:17:00,25.0,11.5,29.47,West,270,0.0,2.0,56,0.00,RA,BKN,3.77,WeatherDisplay:10.37,2013-11-28 15:17:00,
2013-11-28 10:22:00,25.2,11.2,29.47,West,270,4.7,4.7,55,0.00,RA,BKN,3.77,WeatherDisplay:10.37,2013-11-28 15:22:00,
2013-11-28 10:27:00,25.3,12.2,29.47,West,270,4.0,4.0,57,0.00,RA,BKN,3.77,WeatherDisplay:10.37,2013-11-28 15:27:00,
2013-11-28 10:40:00,25.0,11.1,29.47,West,270,2.4,2.4,55,0.00,RA,BKN,3.77,WeatherDisplay:10.37,2013-11-28 15:40:00,
2013-11-28 10:45:00,25.0,11.5,29.48,West,270,0.5,0.5,56,0.00,RA,BKN,3.77,WeatherDisplay:10.37,2013-11-28 15:45:00,
2013-11-28 10:51:00,24.8,10.9,29.48,West,270,1.4,1.4,55,0.00,RA,BKN,3.77,WeatherDisplay:10.37,2013-11-28 15:51:00,
2013-11-28 10:56:00,24.8,10.9,29.48,West,270,0.0,3.8,55,0.00,RA,BKN,3.77,WeatherDisplay:10.37,2013-11-28 15:56:00,
2013-11-28 11:01:00,24.8,10.9,29.49,West,270,0.5,0.5,55,0.00,RA,BKN,3.77,WeatherDisplay:10.37,2013-11-28 16:01:00,
2013-11-28 11:06:00,25.0,10.7,29.49,West,270,1.8,1.8,54,0.00,RA,BKN,3.77,WeatherDisplay:10.37,2013-11-28 16:06:00,
2013-11-28 11:15:00,25.0,11.1,29.49,West,270,1.4,1.4,55,0.00,RA,BKN,3.77,WeatherDisplay:10.37,2013-11-28 16:15:00,
2013-11-28 11:20:00,24.8,10.1,29.49,West,270,7.8,7.8,53,0.00,RA,BKN,3.77,WeatherDisplay:10.37,2013-11-28 16:20:00,
2013-11-28 11:25:00,25.0,11.1,29.49,West,270,0.0,1.2,55,0.00,RA,BKN,3.77,WeatherDisplay:10.37,2013-11-28 16:25:00,
2013-11-28 11:30:00,25.2,10.4,29.50,West,270,0.7,0.7,53,0.00,RA,BKN,3.77,WeatherDisplay:10.37,2013-11-28 16:30:00,
2013-11-28 11:35:00,25.2,9.1,29.51,West,270,1.4,1.4,50,0.00,RA,BKN,3.77,WeatherDisplay:10.37,2013-11-28 16:35:00,
2013-11-28 11:40:00,25.3,9.7,29.51,West,270,0.9,0.9,51,0.00,RA,BKN,3.77,WeatherDisplay:10.37,2013-11-28 16:40:00,
2013-11-28 11:45:00,25.2,9.1,29.52,West,270,0.0,2.0,50,0.00,RA,BKN,3.77,WeatherDisplay:10.37,2013-11-28 16:45:00,
2013-11-28 11:50:00,25.3,9.3,29.51,West,270,1.8,1.8,50,0.00,RA,BKN,3.77,WeatherDisplay:10.37,2013-11-28 16:50:00,
2013-11-28 12:44:00,25.5,9.4,29.52,West,270,0.5,0.5,50,0.00,RA,BKN,3.77,WeatherDisplay:10.37,2013-11-28 17:44:00,
2013-11-28 12:49:00,25.5,9.4,29.52,West,270,0.5,0.5,50,0.00,RA,BKN,3.77,WeatherDisplay:10.37,2013-11-28 17:49:00,
2013-11-28 12:54:00,25.5,9.4,29.52,West,270,0.0,0.5,50,0.00,RA,BKN,3.77,WeatherDisplay:10.37,2013-11-28 17:54:00,
2013-11-28 12:59:00,26.1,8.1,29.54,West,270,0.9,0.9,46,0.00,RA,BKN,3.77,WeatherDisplay:10.37,2013-11-28 17:59:00,
2013-11-28 13:04:00,26.1,8.1,29.55,West,270,5.6,5.6,46,0.00,RA,BKN,3.77,WeatherDisplay:10.37,2013-11-28 18:04:00,
2013-11-28 13:09:00,25.9,7.9,29.55,West,270,0.7,0.7,46,0.00,RA,BKN,3.77,WeatherDisplay:10.37,2013-11-28 18:09:00,
2013-11-28 13:14:00,25.9,7.9,29.55,West,270,1.2,1.2,46,0.00,RA,BKN,3.77,WeatherDisplay:10.37,2013-11-28 18:14:00,
2013-11-28 13:19:00,26.2,8.2,29.55,West,270,0.2,0.2,46,0.00,RA,BKN,3.77,WeatherDisplay:10.37,2013-11-28 18:19:00,
2013-11-28 13:24:00,26.2,7.3,29.55,West,270,0.0,1.8,44,0.00,RA,BKN,3.77,WeatherDisplay:10.37,2013-11-28 18:24:00,
2013-11-28 13:29:00,26.4,7.9,29.56,West,270,0.9,0.9,45,0.00,RA,BKN,3.77,WeatherDisplay:10.37,2013-11-28 18:29:00,
2013-11-28 13:34:00,26.2,7.3,29.56,West,270,0.7,0.7,44,0.00,RA,BKN,3.77,WeatherDisplay:10.37,2013-11-28 18:34:00,
2013-11-28 13:39:00,26.2,7.8,29.57,West,270,2.4,2.4,45,0.00,RA,BKN,3.77,WeatherDisplay:10.37,2013-11-28 18:39:00,
2013-11-28 13:44:00,26.2,6.7,29.57,West,270,0.0,2.2,43,0.00,RA,BKN,3.77,WeatherDisplay:10.37,2013-11-28 18:44:00,
2013-11-28 13:49:00,26.1,5.5,29.57,West,270,4.7,4.7,41,0.00,RA,BKN,3.77,WeatherDisplay:10.37,2013-11-28 18:49:00,
2013-11-28 13:55:00,25.7,5.7,29.57,West,270,1.4,1.4,42,0.00,RA,BKN,3.77,WeatherDisplay:10.37,2013-11-28 18:55:00,
2013-11-28 14:00:00,25.7,6.3,29.57,West,270,1.4,1.4,43,0.00,RA,BKN,3.77,WeatherDisplay:10.37,2013-11-28 19:00:00,
2013-11-28 14:05:00,25.7,6.8,29.58,West,270,1.6,1.6,44,0.00,RA,BKN,3.77,WeatherDisplay:10.37,2013-11-28 19:05:00,
2013-11-28 14:10:00,25.5,6.6,29.58,West,270,0.0,1.8,44,0.00,RA,BKN,3.77,WeatherDisplay:10.37,2013-11-28 19:10:00,
2013-11-28 14:15:00,25.5,6.1,29.59,West,270,0.9,0.9,43,0.00,RA,BKN,3.77,WeatherDisplay:10.37,2013-11-28 19:15:00,
2013-11-28 14:20:00,25.5,7.1,29.59,West,270,4.3,4.3,45,0.00,RA,BKN,3.77,WeatherDisplay:10.37,2013-11-28 19:20:00,
2013-11-28 14:25:00,25.7,7.3,29.59,West,270,1.6,1.6,45,0.00,RA,BKN,3.77,WeatherDisplay:10.37,2013-11-28 19:25:00,
2013-11-28 14:30:00,25.9,7.4,29.60,West,270,0.0,0.5,45,0.00,RA,BKN,3.77,WeatherDisplay:10.37,2013-11-28 19:30:00,
2013-11-28 14:35:00,25.9,7.4,29.59,West,270,0.5,0.5,45,0.00,RA,BKN,3.77,WeatherDisplay:10.37,2013-11-28 19:35:00,
2013-11-28 14:40:00,25.9,6.9,29.60,West,270,1.2,1.2,44,0.00,RA,BKN,3.77,WeatherDisplay:10.37,2013-11-28 19:40:00,
2013-11-28 14:45:00,25.9,6.4,29.60,West,270,2.4,2.4,43,0.00,RA,BKN,3.77,WeatherDisplay:10.37,2013-11-28 19:45:00,
2013-11-28 14:50:00,26.1,6.6,29.60,West,270,0.0,0.0,43,0.00,RA,BKN,3.77,WeatherDisplay:10.37,2013-11-28 19:50:00,
2013-11-28 14:55:00,26.2,7.8,29.60,West,270,0.5,0.5,45,0.00,RA,BKN,3.77,WeatherDisplay:10.37,2013-11-28 19:55:00,
2013-11-28 15:00:00,26.2,6.7,29.60,West,270,0.7,0.7,43,0.00,RA,BKN,3.77,WeatherDisplay:10.37,2013-11-28 20:00:00,
2013-11-28 15:05:00,26.2,7.3,29.60,West,270,1.4,1.4,44,0.00,RA,BKN,3.77,WeatherDisplay:10.37,2013-11-28 20:05:00,
2013-11-28 15:10:00,26.2,7.3,29.61,West,270,0.0,0.2,44,0.00,RA,BKN,3.77,WeatherDisplay:10.37,2013-11-28 20:10:00,
2013-11-28 15:15:00,26.2,6.7,29.61,West,270,0.7,0.7,43,0.00,RA,BKN,3.77,WeatherDisplay:10.37,2013-11-28 20:15:00,
2013-11-28 15:20:00,26.2,7.3,29.61,West,270,2.6,2.6,44,0.00,RA,BKN,3.77,WeatherDisplay:10.37,2013-11-28 20:20:00,
2013-11-28 15:25:00,26.2,7.8,29.62,West,270,0.5,0.5,45,0.00,RA,BKN,3.77,WeatherDisplay:10.37,2013-11-28 20:25:00,
2013-11-28 15:30:00,26.2,8.2,29.63,West,270,0.0,0.9,46,0.00,RA,BKN,3.77,WeatherDisplay:10.37,2013-11-28 20:30:00,
2013-11-28 15:35:00,26.2,7.8,29.63,West,270,0.9,0.9,45,0.00,RA,BKN,3.77,WeatherDisplay:10.37,2013-11-28 20:35:00,
2013-11-28 15:40:00,26.1,7.1,29.64,West,270,0.5,0.5,44,0.00,RA,BKN,3.77,WeatherDisplay:10.37,2013-11-28 20:40:00,
2013-11-28 15:45:00,26.1,8.1,29.64,West,270,0.0,0.0,46,0.00,RA,BKN,3.77,WeatherDisplay:10.37,2013-11-28 20:45:00,
2013-11-28 15:50:00,25.9,8.4,29.65,West,270,0.0,0.2,47,0.00,RA,BKN,3.77,WeatherDisplay:10.37,2013-11-28 20:50:00,
2013-11-28 15:55:00,25.5,7.1,29.65,West,270,0.0,0.0,45,0.00,RA,BKN,3.77,WeatherDisplay:10.37,2013-11-28 20:55:00,
2013-11-28 16:00:00,25.5,6.1,29.66,West,270,0.9,0.9,43,0.00,RA,BKN,3.77,WeatherDisplay:10.37,2013-11-28 21:00:00,
2013-11-28 16:05:00,25.3,6.4,29.67,West,270,0.5,0.5,44,0.00,RA,BKN,3.77,WeatherDisplay:10.37,2013-11-28 21:05:00,
2013-11-28 16:10:00,25.0,6.1,29.67,West,270,0.0,0.5,44,0.00,RA,BKN,3.77,WeatherDisplay:10.37,2013-11-28 21:10:00,
2013-11-28 16:15:00,24.8,6.4,29.68,West,270,0.5,0.5,45,0.00,RA,BKN,3.77,WeatherDisplay:10.37,2013-11-28 21:15:00,
2013-11-28 16:20:00,24.6,5.8,29.68,West,270,0.5,0.5,44,0.00,RA,BKN,3.77,WeatherDisplay:10.37,2013-11-28 21:20:00,
2013-11-28 16:25:00,24.4,6.1,29.68,West,270,0.2,0.2,45,0.00,RA,BKN,3.77,WeatherDisplay:10.37,2013-11-28 21:25:00,
2013-11-28 16:30:00,24.3,5.9,29.68,West,270,0.0,1.6,45,0.00,RA,BKN,3.77,WeatherDisplay:10.37,2013-11-28 21:30:00,
2013-11-28 16:35:00,24.1,6.3,29.69,West,270,0.0,0.0,46,0.00,RA,BKN,3.77,WeatherDisplay:10.37,2013-11-28 21:35:00,
2013-11-28 16:40:00,24.1,6.3,29.70,West,270,1.2,1.2,46,0.00,RA,BKN,3.77,WeatherDisplay:10.37,2013-11-28 21:40:00,
2013-11-28 16:45:00,23.9,6.6,29.70,West,270,0.5,0.5,47,0.00,RA,BKN,3.77,WeatherDisplay:10.37,2013-11-28 21:45:00,
2013-11-28 16:50:00,23.7,6.4,29.70,West,270,1.8,1.8,47,0.00,RA,BKN,3.77,WeatherDisplay:10.37,2013-11-28 21:50:00,
2013-11-28 16:55:00,23.7,6.4,29.71,West,270,0.0,1.6,47,0.00,RA,BKN,3.77,WeatherDisplay:10.37,2013-11-28 21:55:00,
2013-11-28 17:00:00,23.5,6.7,29.71,West,270,0.9,0.9,48,0.00,RA,BKN,3.77,WeatherDisplay:10.37,2013-11-28 22:00:00,
2013-11-28 17:05:00,23.4,6.5,29.71,West,270,0.9,0.9,48,0.00,RA,BKN,3.77,WeatherDisplay:10.37,2013-11-28 22:05:00,
2013-11-28 17:10:00,23.4,6.5,29.71,West,270,2.0,2.0,48,0.00,RA,BKN,3.77,WeatherDisplay:10.37,2013-11-28 22:10:00,
2013-11-28 17:15:00,23.4,7.0,29.71,West,270,0.2,0.2,49,0.00,RA,BKN,3.77,WeatherDisplay:10.37,2013-11-28 22:15:00,
2013-11-28 17:20:00,23.2,6.4,29.72,West,270,0.0,0.9,48,0.00,RA,BKN,3.77,WeatherDisplay:10.37,2013-11-28 22:20:00,
2013-11-28 17:25:00,23.0,6.7,29.72,West,270,0.5,0.5,49,0.00,RA,BKN,3.77,WeatherDisplay:10.37,2013-11-28 22:25:00,
2013-11-28 17:30:00,23.0,7.1,29.72,West,270,0.0,0.0,50,0.00,RA,BKN,3.77,WeatherDisplay:10.37,2013-11-28 22:30:00,
2013-11-28 17:35:00,22.8,6.9,29.73,West,270,0.0,0.0,50,0.00,RA,BKN,3.77,WeatherDisplay:10.37,2013-11-28 22:35:00,
2013-11-28 17:40:00,22.8,7.8,29.73,West,270,0.0,0.0,52,0.00,RA,BKN,3.77,WeatherDisplay:10.37,2013-11-28 22:40:00,
2013-11-28 17:45:00,22.3,8.1,29.73,West,270,0.0,0.2,54,0.00,RA,BKN,3.77,WeatherDisplay:10.37,2013-11-28 22:45:00,
2013-11-28 17:50:00,21.9,7.8,29.73,West,270,0.0,0.0,54,0.00,RA,BKN,3.77,WeatherDisplay:10.37,2013-11-28 22:50:00,
2013-11-28 17:55:00,21.7,7.6,29.74,West,270,0.0,0.0,54,0.00,RA,BKN,3.77,WeatherDisplay:10.37,2013-11-28 22:55:00,
2013-11-28 18:00:00,21.6,7.9,29.74,West,270,0.0,0.0,55,0.00,RA,BKN,3.77,WeatherDisplay:10.37,2013-11-28 23:00:00,
2013-11-28 18:05:00,21.6,7.9,29.74,West,270,0.0,0.0,55,0.00,RA,BKN,3.77,WeatherDisplay:10.37,2013-11-28 23:05:00,
2013-11-28 18:10:00,21.6,7.5,29.74,West,270,0.0,0.0,54,0.00,RA,BKN,3.77,WeatherDisplay:10.37,2013-11-28 23:10:00,
2013-11-28 18:15:00,21.6,7.9,29.75,West,270,0.2,0.2,55,0.00,RA,BKN,3.77,WeatherDisplay:10.37,2013-11-28 23:15:00,
2013-11-28 18:20:00,21.4,7.3,29.75,West,270,0.5,0.5,54,0.00,RA,BKN,3.77,WeatherDisplay:10.37,2013-11-28 23:20:00,
2013-11-28 18:29:00,21.7,5.9,29.76,West,270,1.6,1.6,50,0.00,RA,BKN,3.77,WeatherDisplay:10.37,2013-11-28 23:29:00,
2013-11-28 18:34:00,21.9,5.2,29.76,West,270,0.5,0.5,48,0.00,RA,BKN,3.77,WeatherDisplay:10.37,2013-11-28 23:34:00,
2013-11-28 18:39:00,21.9,5.2,29.76,West,270,0.2,0.2,48,0.00,RA,BKN,3.77,WeatherDisplay:10.37,2013-11-28 23:39:00,
2013-11-28 18:44:00,21.9,5.2,29.77,West,270,0.2,0.2,48,0.00,RA,BKN,3.77,WeatherDisplay:10.37,2013-11-28 23:44:00,
2013-11-28 18:49:00,21.9,5.2,29.77,West,270,0.0,0.0,48,0.00,RA,BKN,3.77,WeatherDisplay:10.37,2013-11-28 23:49:00,
2013-11-28 18:54:00,21.9,5.7,29.77,West,270,0.2,0.2,49,0.00,RA,BKN,3.77,WeatherDisplay:10.37,2013-11-28 23:54:00,
2013-11-28 18:59:00,21.7,5.9,29.77,West,270,0.5,0.5,50,0.00,RA,BKN,3.77,WeatherDisplay:10.37,2013-11-28 23:59:00,
2013-11-28 19:04:00,21.6,5.8,29.77,West,270,0.0,0.0,50,0.00,RA,BKN,3.77,WeatherDisplay:10.37,2013-11-29 00:04:00,
2013-11-28 19:09:00,21.6,6.2,29.78,West,270,0.2,0.2,51,0.00,RA,BKN,3.77,WeatherDisplay:10.37,2013-11-29 00:09:00,
2013-11-28 19:15:00,21.6,7.0,29.78,West,270,0.2,0.2,53,0.00,RA,BKN,3.77,WeatherDisplay:10.37,2013-11-29 00:15:00,
2013-11-28 19:20:00,21.0,7.4,29.78,West,270,0.0,0.0,55,0.00,RA,BKN,3.77,WeatherDisplay:10.37,2013-11-29 00:20:00,
2013-11-28 19:25:00,20.5,6.9,29.79,West,270,0.2,0.2,55,0.00,RA,BKN,3.77,WeatherDisplay:10.37,2013-11-29 00:25:00,
2013-11-28 19:30:00,20.5,6.9,29.79,West,270,0.0,0.0,55,0.00,RA,BKN,3.77,WeatherDisplay:10.37,2013-11-29 00:30:00,
2013-11-28 19:35:00,20.3,6.7,29.80,West,270,0.0,0.0,55,0.00,RA,BKN,3.77,WeatherDisplay:10.37,2013-11-29 00:35:00,
2013-11-28 19:40:00,19.9,6.3,29.80,West,270,0.0,0.0,55,0.00,RA,BKN,3.77,WeatherDisplay:10.37,2013-11-29 00:40:00,
2013-11-28 19:45:00,19.9,7.1,29.80,West,270,0.2,0.2,57,0.00,RA,BKN,3.77,WeatherDisplay:10.37,2013-11-29 00:45:00,
2013-11-28 19:50:00,19.4,7.4,29.80,West,270,0.0,0.0,59,0.00,RA,BKN,3.77,WeatherDisplay:10.37,2013-11-29 00:50:00,
2013-11-28 19:55:00,19.0,7.0,29.81,West,270,0.0,0.0,59,0.00,RA,BKN,3.77,WeatherDisplay:10.37,2013-11-29 00:55:00,
2013-11-28 20:00:00,19.0,6.7,29.81,West,270,0.0,0.0,58,0.00,RA,BKN,3.77,WeatherDisplay:10.37,2013-11-29 01:00:00,
2013-11-28 20:05:00,19.2,6.8,29.81,West,270,0.2,0.2,58,0.00,RA,BKN,3.77,WeatherDisplay:10.37,2013-11-29 01:05:00,
2013-11-28 20:10:00,19.2,7.2,29.82,West,270,0.0,0.0,59,0.00,RA,BKN,3.77,WeatherDisplay:10.37,2013-11-29 01:10:00,
2013-11-28 20:15:00,19.0,7.0,29.82,West,270,0.0,0.0,59,0.00,RA,BKN,3.77,WeatherDisplay:10.37,2013-11-29 01:15:00,
2013-11-28 20:20:00,19.0,7.0,29.82,West,270,0.0,0.0,59,0.00,RA,BKN,3.77,WeatherDisplay:10.37,2013-11-29 01:20:00,
2013-11-28 20:25:00,18.9,6.9,29.82,West,270,0.5,0.5,59,0.00,RA,BKN,3.77,WeatherDisplay:10.37,2013-11-29 01:25:00,
2013-11-28 20:30:00,19.0,7.0,29.82,West,270,0.0,0.0,59,0.00,RA,BKN,3.77,WeatherDisplay:10.37,2013-11-29 01:30:00,
2013-11-28 20:35:00,18.9,6.9,29.82,West,270,0.0,0.0,59,0.00,RA,BKN,3.77,WeatherDisplay:10.37,2013-11-29 01:35:00,
2013-11-28 20:40:00,19.0,7.0,29.83,West,270,0.0,0.5,59,0.00,RA,BKN,3.77,WeatherDisplay:10.37,2013-11-29 01:40:00,
2013-11-28 20:45:00,18.3,7.1,29.83,West,270,0.2,0.2,61,0.00,RA,BKN,3.77,WeatherDisplay:10.37,2013-11-29 01:45:00,
2013-11-28 20:50:00,17.6,6.4,29.84,West,270,0.0,0.0,61,0.00,RA,BKN,3.77,WeatherDisplay:10.37,2013-11-29 01:50:00,
2013-11-28 20:55:00,17.2,6.8,29.84,West,270,0.0,0.0,63,0.00,RA,BKN,3.77,WeatherDisplay:10.37,2013-11-29 01:55:00,
2013-11-28 21:00:00,17.1,6.3,29.84,West,270,0.0,0.0,62,0.00,RA,BKN,0.00,WeatherDisplay:10.37,2013-11-29 02:00:00,
2013-11-28 21:05:00,17.2,6.4,29.84,West,270,0.0,0.0,62,0.00,RA,BKN,0.00,WeatherDisplay:10.37,2013-11-29 02:05:00,
2013-11-28 21:10:00,17.4,7.0,29.85,West,270,0.0,0.0,63,0.00,RA,BKN,0.00,WeatherDisplay:10.37,2013-11-29 02:10:00,
2013-11-28 21:15:00,17.2,7.8,29.85,West,270,0.0,0.0,66,0.00,RA,BKN,0.00,WeatherDisplay:10.37,2013-11-29 02:15:00,
2013-11-28 21:20:00,17.1,7.6,29.85,West,270,0.0,0.0,66,0.00,RA,BKN,0.00,WeatherDisplay:10.37,2013-11-29 02:20:00,
2013-11-28 21:25:00,17.1,7.3,29.85,West,270,0.5,0.5,65,0.00,RA,BKN,0.00,WeatherDisplay:10.37,2013-11-29 02:25:00,
2013-11-28 21:30:00,17.2,7.5,29.85,West,270,0.5,0.5,65,0.00,RA,BKN,0.00,WeatherDisplay:10.37,2013-11-29 02:30:00,
2013-11-28 21:35:00,17.2,7.5,29.85,West,270,0.2,0.2,65,0.00,RA,BKN,0.00,WeatherDisplay:10.37,2013-11-29 02:35:00,
2013-11-28 21:40:00,17.4,7.7,29.85,West,270,0.5,0.5,65,0.00,RA,BKN,0.00,WeatherDisplay:10.37,2013-11-29 02:40:00,
2013-11-28 21:45:00,17.8,7.7,29.85,West,270,0.0,0.0,64,0.00,RA,BKN,0.00,WeatherDisplay:10.37,2013-11-29 02:45:00,
2013-11-28 21:50:00,18.1,7.6,29.85,West,270,0.0,0.0,63,0.00,RA,BKN,0.00,WeatherDisplay:10.37,2013-11-29 02:50:00,
2013-11-28 21:55:00,18.1,7.6,29.86,West,270,1.2,1.2,63,0.00,CLR,SKC,0.01,WeatherDisplay:10.37,2013-11-29 02:55:00,
2013-11-28 22:00:00,18.1,7.6,29.86,West,270,0.2,0.2,63,0.00,CLR,SKC,0.01,WeatherDisplay:10.37,2013-11-29 03:00:00,
2013-11-28 22:05:00,18.3,7.5,29.86,West,270,0.0,0.0,62,0.00,CLR,SKC,0.01,WeatherDisplay:10.37,2013-11-29 03:05:00,
2013-11-28 22:10:00,18.3,7.5,29.86,West,270,0.2,0.2,62,0.00,CLR,SKC,0.01,WeatherDisplay:10.37,2013-11-29 03:10:00,
2013-11-28 22:15:00,18.3,7.8,29.86,West,270,0.0,0.0,63,0.00,CLR,SKC,0.01,WeatherDisplay:10.37,2013-11-29 03:15:00,
2013-11-28 22:20:00,18.3,7.8,29.87,West,270,0.0,0.0,63,0.00,CLR,SKC,0.01,WeatherDisplay:10.37,2013-11-29 03:20:00,
2013-11-28 22:25:00,18.1,7.6,29.87,West,270,0.0,0.0,63,0.00,CLR,SKC,0.01,WeatherDisplay:10.37,2013-11-29 03:25:00,
2013-11-28 22:30:00,18.0,7.5,29.87,West,270,0.0,0.0,63,0.00,CLR,SKC,0.01,WeatherDisplay:10.37,2013-11-29 03:30:00,
2013-11-28 22:35:00,17.6,7.5,29.87,West,270,0.0,0.0,64,0.00,CLR,SKC,0.01,WeatherDisplay:10.37,2013-11-29 03:35:00,
2013-11-28 22:40:00,17.4,7.3,29.87,West,270,0.0,0.0,64,0.00,CLR,SKC,0.01,WeatherDisplay:10.37,2013-11-29 03:40:00,
2013-11-28 22:45:00,17.2,7.5,29.88,West,270,0.0,0.0,65,0.00,CLR,SKC,0.01,WeatherDisplay:10.37,2013-11-29 03:45:00,
2013-11-28 22:50:00,17.2,7.5,29.88,West,270,0.0,0.0,65,0.00,CLR,SKC,0.01,WeatherDisplay:10.37,2013-11-29 03:50:00,
2013-11-28 22:55:00,17.1,7.3,29.87,West,270,0.0,0.0,65,0.00,CLR,SKC,0.01,WeatherDisplay:10.37,2013-11-29 03:55:00,
2013-11-28 23:00:00,16.7,7.0,29.87,West,270,0.2,0.2,65,0.00,CLR,SKC,0.01,WeatherDisplay:10.37,2013-11-29 04:00:00,
2013-11-28 23:06:00,16.5,6.8,29.87,West,270,0.0,0.0,65,0.00,CLR,SKC,0.01,WeatherDisplay:10.37,2013-11-29 04:06:00,
2013-11-28 23:11:00,16.3,7.0,29.88,West,270,0.0,0.0,66,0.00,CLR,SKC,0.01,WeatherDisplay:10.37,2013-11-29 04:11:00,
2013-11-28 23:16:00,16.3,7.0,29.88,West,270,0.0,0.0,66,0.00,CLR,SKC,0.01,WeatherDisplay:10.37,2013-11-29 04:16:00,
2013-11-28 23:21:00,16.3,7.0,29.88,West,270,0.0,0.0,66,0.00,CLR,SKC,0.01,WeatherDisplay:10.37,2013-11-29 04:21:00,
2013-11-28 23:26:00,16.2,6.8,29.88,West,270,0.0,0.0,66,0.00,CLR,SKC,0.01,WeatherDisplay:10.37,2013-11-29 04:26:00,
2013-11-28 23:32:00,18.1,7.6,29.85,West,270,0.0,0.0,63,0.00,RA,BKN,0.00,WeatherDisplay:10.37,2013-11-29 04:32:00,
2013-11-28 23:37:00,16.3,7.3,29.88,West,270,0.0,0.0,67,0.00,RA,BKN,0.00,WeatherDisplay:10.37,2013-11-29 04:37:00,
2013-11-28 23:42:00,16.3,7.3,29.88,West,270,0.2,0.2,67,0.00,RA,BKN,0.00,WeatherDisplay:10.37,2013-11-29 04:42:00,
2013-11-28 23:47:00,16.5,7.5,29.88,West,270,0.5,0.5,67,0.00,RA,BKN,0.00,WeatherDisplay:10.37,2013-11-29 04:47:00,
2013-11-28 23:52:00,16.5,7.1,29.88,West,270,0.0,0.0,66,0.00,RA,BKN,0.00,WeatherDisplay:10.37,2013-11-29 04:52:00,
2013-11-28 23:57:00,16.3,7.3,29.88,West,270,0.7,0.7,67,0.00,RA,BKN,0.00,WeatherDisplay:10.37,2013-11-29 04:57:00,